Flag for Germany Weather past 2 weeks in Weinheim, Baden-Württemberg, Germany

Now
73 °F

Passing clouds.


Feels Like: 77 °F
Forecast: 49 / 75 °F
Wind: 7 mph from Northeast

Location: Baden Wurttemberg - Neuostheim


UV Index: 3 (Moderate)

Visibility: N/A


Pressure: 30.01 "Hg

Humidity: 36%

Dew point: 45 °F

Location of WeinheimLocation

Historic Weather in Weinheim

°F

Weinheim temperature yesterday

Maximum temperature yesterday: 73 °F (at 4:50 PM)
Minimum temperature yesterday: 45 °F (at 5:50 AM)
Average temperature yesterday: 64 °F

Past Weeks' High & Low Weather Summary

 TemperatureHumidityPressure
High73 °F (Apr 23, 4:50 PM)94% (Apr 12, 7:50 AM)30.42 "Hg (Apr 12, 7:50 AM)
Low34 °F (Apr 17, 6:50 AM)23% (Apr 17, 6:50 PM)29.59 "Hg (Apr 21, 4:20 PM)
Average57 °F54%30.04 "Hg
* Reported Apr 9 2:20 PM — Apr 24 2:50 PM, Weinheim, Weather by CustomWeather, © 2014

Note: Actual official high and low records may vary slightly from our data, if they occured in-between our weather recording intervals... More about our weather records

Advertising

Historic Weather Conditions — Data for Previous 24 hours

 ConditionsComfort  
Time TempWeatherWind HumidityBarometerVisibility
2:50 PM
Apr 24
73 °FPassing clouds.7 mph36%30.01 "HgN/A
2:20 PM72 °FPassing clouds.6 mph38%30.01 "HgN/A
1:50 PM73 °FSunny.5 mph36%30.04 "Hg10 mi
1:20 PM72 °FSunny.3 mph41%30.04 "Hg10 mi
12:50 PM72 °FSunny.3 mph44%30.04 "Hg10 mi
12:20 PM70 °FSunny.2 mph46%30.07 "Hg10 mi
11:50 AM68 °FSunny.3 mph46%30.07 "Hg10 mi
11:20 AM66 °FSunny.3 mph49%30.09 "Hg10 mi
10:50 AM64 °FSunny.3 mph56%30.09 "Hg10 mi
10:20 AM63 °FSunny.2 mph59%30.09 "Hg10 mi
9:50 AM61 °FSunny.3 mph63%30.09 "Hg10 mi
9:20 AM59 °FSunny.2 mph68%30.09 "Hg10 mi
8:50 AM57 °FSunny.2 mph72%30.09 "Hg10 mi
8:20 AM54 °FSunny.2 mph82%30.09 "Hg10 mi
7:50 AM52 °FSunny.2 mph88%30.09 "Hg10 mi
7:20 AM50 °FSunny.2 mph88%30.09 "Hg10 mi
6:50 AM50 °FClear.3 mph88%30.09 "Hg10 mi
6:20 AM48 °FClear.2 mph87%30.09 "Hg10 mi
5:50 AM48 °FClear.2 mph87%30.09 "Hg10 mi
5:20 AM50 °FClear.3 mph88%30.07 "Hg10 mi
8:50 PM
Apr 23
66 °FSunny.5 mph43%30.07 "Hg10 mi
8:20 PM68 °FSunny.6 mph38%30.04 "Hg10 mi
7:50 PM70 °FPassing clouds.6 mph38%30.04 "HgN/A
7:20 PM70 °FPassing clouds.7 mph38%30.04 "HgN/A
6:50 PM72 °FSunny.7 mph36%30.04 "Hg10 mi
6:20 PM72 °FPassing clouds.7 mph38%30.04 "HgN/A
5:50 PM72 °FSunny.9 mph41%30.04 "Hg10 mi
5:20 PM72 °FPassing clouds.10 mph38%30.04 "HgN/A
4:50 PM73 °FPassing clouds.7 mph36%30.04 "HgN/A
4:20 PM72 °FPassing clouds.5 mph38%30.07 "HgN/A
3:50 PM72 °FPassing clouds.8 mph41%30.07 "HgN/A
3:20 PM72 °FSunny.5 mph36%30.07 "Hg10 mi
Weather by CustomWeather, © 2014

See weather overview